| time (UTC) | temp C | wind direction | speed KPH | gust KPH | rain 1hr cm | rain 24hr cm | rain mn cm | humidity % | barometer mb |
| 20260901001512 | 16 | 195 | 11.3 | 29.0 | 0.00 | 0.05 | 0.00 | 60 | 1014.3 |
| 20260901000010 | 16 | 250 | 8.0 | 25.7 | 0.00 | 0.05 | 0.00 | 62 | 1014.3 |
| 20260831234509 | 15 | 281 | 8.0 | 24.1 | 0.00 | 0.05 | 0.00 | 63 | 1014.4 |
| 20260831233011 | 15 | 188 | 6.4 | 25.7 | 0.00 | 0.05 | 0.00 | 63 | 1014.3 |
| 20260831231505 | 15 | 212 | 6.4 | 27.4 | 0.00 | 0.05 | 0.00 | 65 | 1014.1 |
| 20260831230005 | 15 | 285 | 8.0 | 24.1 | 0.00 | 0.05 | 0.00 | 63 | 1013.9 |
| 20260831224501 | 15 | 256 | 8.0 | 27.4 | 0.00 | 0.05 | 0.00 | 63 | 1013.8 |
| 20260831223100 | 14 | 229 | 11.3 | 29.0 | 0.00 | 0.05 | 0.00 | 63 | 1014.0 |
| 20260831221557 | 14 | 290 | 6.4 | 32.2 | 0.00 | 0.05 | 0.00 | 64 | 1013.9 |
| 20260831220055 | 14 | 167 | 11.3 | 37.0 | 0.00 | 0.05 | 0.00 | 63 | 1014.0 |
| 20260831214600 | 14 | 215 | 8.0 | 24.1 | 0.00 | 0.05 | 0.00 | 65 | 1013.9 |
| 20260831213054 | 13 | 217 | 6.4 | 20.9 | 0.00 | 0.05 | 0.00 | 67 | 1013.5 |
| 20260831211552 | 13 | 285 | 12.9 | 22.5 | 0.00 | 0.05 | 0.00 | 66 | 1013.2 |
| 20260831210046 | 13 | 273 | 6.4 | 17.7 | 0.00 | 0.05 | 0.00 | 66 | 1013.0 |
| 20260831204542 | 13 | 204 | 8.0 | 19.3 | 0.00 | 0.05 | 0.00 | 66 | 1012.8 |
| 20260831203038 | 13 | 170 | 3.2 | 11.3 | 0.00 | 0.05 | 0.00 | 69 | 1012.7 |
| 20260831201537 | 12 | 176 | 3.2 | 9.7 | 0.00 | 0.05 | 0.00 | 69 | 1012.6 |
| 20260831200037 | 12 | 172 | 6.4 | 12.9 | 0.00 | 0.05 | 0.00 | 70 | 1012.5 |
| 20260831194542 | 12 | 208 | 1.6 | 11.3 | 0.00 | 0.05 | 0.00 | 73 | 1012.3 |
| 20260831193033 | 11 | 165 | 6.4 | 12.9 | 0.00 | 0.05 | 0.00 | 72 | 1012.1 |
| 20260831191535 | 11 | 198 | 3.2 | 12.9 | 0.00 | 0.05 | 0.00 | 72 | 1012.0 |
| 20260831190029 | 11 | 245 | 8.0 | 20.9 | 0.00 | 0.05 | 0.00 | 72 | 1011.7 |
| 20260831184527 | 11 | 187 | 4.8 | 16.1 | 0.00 | 0.05 | 0.00 | 73 | 1011.4 |
| 20260831183025 | 11 | 212 | 1.6 | 8.0 | 0.00 | 0.05 | 0.00 | 74 | 1011.3 |
| 20260831181522 | 12 | 132 | 0.0 | 3.2 | 0.00 | 0.05 | 0.00 | 74 | 1010.9 |
| 20260831180019 | 12 | 338 | 1.6 | 12.9 | 0.00 | 0.05 | 0.00 | 74 | 1010.6 |
| 20260831174517 | 12 | 117 | 1.6 | 9.7 | 0.00 | 0.05 | 0.00 | 74 | 1010.2 |
| 20260831173015 | 12 | 83 | 1.6 | 14.5 | 0.00 | 0.05 | 0.00 | 73 | 1009.8 |
| 20260831171513 | 12 | 201 | 4.8 | 11.3 | 0.00 | 0.05 | 0.00 | 76 | 1009.7 |
| 20260831170012 | 12 | 116 | 1.6 | 9.7 | 0.00 | 0.05 | 0.00 | 75 | 1009.4 |
| 20260831164511 | 12 | 98 | 1.6 | 8.0 | 0.00 | 0.05 | 0.00 | 75 | 1009.4 |
| 20260831163013 | 12 | 150 | 0.0 | 16.1 | 0.00 | 0.05 | 0.00 | 74 | 1009.4 |
| 20260831161524 | 12 | 80 | 4.8 | 9.7 | 0.00 | 0.05 | 0.00 | 74 | 1009.0 |
| 20260831160014 | 12 | 270 | 3.2 | 9.7 | 0.00 | 0.05 | 0.00 | 74 | 1009.4 |
| 20260831154505 | 12 | 146 | 0.0 | 16.1 | 0.00 | 0.05 | 0.00 | 74 | 1009.2 |
| 20260831153004 | 12 | 354 | 6.4 | 14.5 | 0.00 | 0.05 | 0.00 | 74 | 1009.3 |
| 20260831151503 | 12 | 235 | 6.4 | 22.5 | 0.00 | 0.05 | 0.00 | 76 | 1009.5 |
| 20260831150003 | 13 | 150 | 0.0 | 16.1 | 0.00 | 0.05 | 0.00 | 76 | 1009.0 |
| 20260831144607 | 12 | 149 | 8.0 | 14.5 | 0.00 | 0.05 | 0.00 | 78 | 1009.4 |
| 20260831143108 | 12 | 356 | 4.8 | 14.5 | 0.00 | 0.05 | 0.00 | 78 | 1009.2 |
| 20260831141558 | 12 | 120 | 3.2 | 6.4 | 0.00 | 0.05 | 0.00 | 78 | 1008.9 |
| 20260831140056 | 12 | 113 | 1.6 | 4.8 | 0.00 | 0.05 | 0.00 | 78 | 1009.1 |
| 20260831134554 | 12 | 240 | 4.8 | 9.7 | 0.00 | 0.05 | 0.00 | 80 | 1008.8 |
| 20260831133052 | 12 | 75 | 1.6 | 9.7 | 0.00 | 0.05 | 0.00 | 80 | 1008.6 |
| 20260831131555 | 12 | 162 | 3.2 | 12.9 | 0.00 | 0.05 | 0.00 | 79 | 1008.5 |
| 20260831124548 | 12 | 86 | 3.2 | 16.1 | 0.00 | 0.05 | 0.00 | 77 | 1008.5 |
| 20260831123048 | 12 | 48 | 1.6 | 8.0 | 0.00 | 0.05 | 0.00 | 77 | 1008.7 |
| 20260831121546 | 13 | 160 | 3.2 | 9.7 | 0.00 | 0.05 | 0.00 | 77 | 1008.5 |
| 20260831120044 | 13 | 84 | 1.6 | 8.0 | 0.00 | 0.05 | 0.00 | 77 | 1008.6 |
| 20260831114542 | 13 | 139 | 1.6 | 6.4 | 0.00 | 0.05 | 0.05 | 78 | 1008.6 |
| 20260831113042 | 13 | 104 | 3.2 | 20.9 | 0.00 | 0.05 | 0.05 | 77 | 1008.5 |
| 20260831111541 | 13 | 82 | 1.6 | 12.9 | 0.00 | 0.05 | 0.05 | 76 | 1008.5 |
| 20260831110041 | 13 | 190 | 3.2 | 11.3 | 0.00 | 0.05 | 0.05 | 76 | 1008.4 |
| 20260831104541 | 13 | 116 | 3.2 | 16.1 | 0.00 | 0.05 | 0.05 | 76 | 1008.4 |
| 20260831103040 | 13 | 167 | 1.6 | 12.9 | 0.00 | 0.05 | 0.05 | 76 | 1008.2 |
| 20260831101538 | 13 | 245 | 3.2 | 14.5 | 0.00 | 0.05 | 0.05 | 77 | 1008.1 |
| 20260831100037 | 13 | 97 | 0.0 | 14.5 | 0.00 | 0.05 | 0.05 | 76 | 1007.9 |
| 20260831094536 | 13 | 173 | 8.0 | 22.5 | 0.00 | 0.05 | 0.05 | 76 | 1007.9 |
| 20260831093035 | 13 | 335 | 3.2 | 12.9 | 0.00 | 0.05 | 0.05 | 78 | 1008.0 |
| 20260831091533 | 13 | 39 | 3.2 | 16.1 | 0.00 | 0.05 | 0.05 | 77 | 1007.8 |
| 20260831090034 | 13 | 285 | 6.4 | 27.4 | 0.00 | 0.05 | 0.05 | 77 | 1007.6 |
| 20260831084532 | 13 | 93 | 3.2 | 16.1 | 0.00 | 0.05 | 0.05 | 78 | 1007.1 |
| 20260831083038 | 13 | 131 | 3.2 | 16.1 | 0.00 | 0.05 | 0.05 | 78 | 1007.0 |
| 20260831081531 | 13 | 123 | 1.6 | 9.7 | 0.00 | 0.05 | 0.05 | 79 | 1007.2 |
| 20260831080030 | 13 | 299 | 1.6 | 9.7 | 0.00 | 0.05 | 0.05 | 80 | 1007.0 |
| 20260831074530 | 13 | 108 | 1.6 | 12.9 | 0.00 | 0.05 | 0.05 | 81 | 1007.1 |
| 20260831073029 | 13 | 324 | 4.8 | 20.9 | 0.00 | 0.05 | 0.05 | 80 | 1006.9 |
| 20260831071528 | 13 | 288 | 8.0 | 20.9 | 0.00 | 0.05 | 0.05 | 79 | 1006.6 |
| 20260831070028 | 13 | 329 | 8.0 | 24.1 | 0.00 | 0.05 | 0.05 | 78 | 1006.6 |
| 20260831064527 | 13 | 168 | 6.4 | 20.9 | 0.00 | 0.05 | 0.05 | 77 | 1006.3 |
| 20260831063026 | 13 | 331 | 8.0 | 17.7 | 0.00 | 0.05 | 0.05 | 76 | 1006.5 |
| 20260831061526 | 13 | 207 | 3.2 | 20.9 | 0.00 | 0.05 | 0.05 | 77 | 1006.9 |
| 20260831060026 | 14 | 196 | 3.2 | 22.5 | 0.00 | 0.05 | 0.05 | 78 | 1007.0 |
| 20260831054524 | 14 | 276 | 8.0 | 30.6 | 0.00 | 0.05 | 0.05 | 77 | 1006.4 |
| 20260831053024 | 14 | 227 | 9.7 | 27.4 | 0.00 | 0.05 | 0.05 | 78 | 1005.9 |
| 20260831051527 | 14 | 288 | 8.0 | 17.7 | 0.00 | 0.05 | 0.05 | 79 | 1005.8 |
| 20260831050024 | 14 | 257 | 11.3 | 27.4 | 0.00 | 0.05 | 0.05 | 80 | 1006.2 |
| 20260831044521 | 14 | 253 | 12.9 | 25.7 | 0.00 | 0.05 | 0.05 | 80 | 1006.2 |
| 20260831043020 | 14 | 211 | 11.3 | 25.7 | 0.00 | 0.05 | 0.05 | 83 | 1006.4 |
| 20260831041550 | 14 | 288 | 6.4 | 24.1 | 0.00 | 0.05 | 0.05 | 85 | 1006.5 |
| 20260831040020 | 15 | 252 | 11.3 | 32.2 | 0.00 | 0.05 | 0.05 | 79 | 1005.9 |
| 20260831034519 | 15 | 252 | 9.7 | 29.0 | 0.00 | 0.05 | 0.05 | 74 | 1005.8 |
| 20260831033022 | 16 | 295 | 14.5 | 29.0 | 0.00 | 0.05 | 0.05 | 73 | 1006.0 |
| 20260831031518 | 16 | 229 | 9.7 | 33.8 | 0.00 | 0.05 | 0.05 | 75 | 1005.9 |
| 20260831030016 | 16 | 256 | 12.9 | 35.4 | 0.00 | 0.05 | 0.05 | 76 | 1005.6 |
| 20260831024515 | 16 | 219 | 9.7 | 32.2 | 0.00 | 0.05 | 0.05 | 73 | 1005.6 |
| 20260831023014 | 16 | 264 | 17.7 | 40.2 | 0.00 | 0.05 | 0.05 | 73 | 1005.8 |
| 20260831021523 | 16 | 290 | 11.3 | 24.1 | 0.00 | 0.05 | 0.05 | 73 | 1005.8 |
| 20260831020014 | 16 | 192 | 9.7 | 35.4 | 0.05 | 0.05 | 0.05 | 75 | 1006.0 |
| 20260831014519 | 16 | 247 | 14.5 | 33.8 | 0.05 | 0.05 | 0.05 | 78 | 1006.0 |
| 20260831013012 | 15 | 290 | 12.9 | 29.0 | 0.05 | 0.05 | 0.05 | 82 | 1006.0 |
| 20260831011519 | 15 | 263 | 16.1 | 30.6 | 0.05 | 0.05 | 0.05 | 81 | 1006.2 |
| 20260831010009 | 17 | 290 | 17.7 | 37.0 | 0.00 | 0.00 | 0.00 | 71 | 1006.2 |
| 20260831004508 | 16 | 281 | 20.9 | 45.1 | 0.00 | 0.00 | 0.00 | 72 | 1006.3 |
| 20260831003007 | 16 | 256 | 16.1 | 38.6 | 0.00 | 0.00 | 0.00 | 70 | 1006.5 |